星链-4001 (STARLINK-4001 )

导读 | 星芒AI

STARLINK-4001 是 SpaceX 星链计划中的一颗低轨通信卫星,属于第 40 批部署的星链卫星群。该卫星旨在为全球用户提供高速互联网服务,尤其服务于网络基础设施薄弱的地区。它运行在约 550 公里的近地轨道,采用先进的通信技术,支持宽带数据传输。星链项目计划部署数万颗卫星,构建全球覆盖的卫星互联网网络,提升全球网络接入的普及性和稳定性。STARLINK-4001 的成功发射和运行,进一步推动了星链系统的建设进程。

基本信息
目录编号:
52628
目录名称:
STARLINK-4001
国际标识:
2022-052AG
轨道中心:
EARTH
卫星名称:
星链-4001
卫星全名:
星链-4001 (STARLINK-4001 )
卫星状态:
在轨 (已飞行1271 天)
发射日期:
2022-05-14 UTC
国别 :
美国 (US)
星等 :
--
轨道信息
数据来源 国际轨道数据
星历时间: 2025-11-04T20:05:40+0800
12小时前
查看轨道信息
半长轴: 6917.852km
偏心率: 0.00015
轨道倾角: 53.214°
近地点辐角 85.856°
升交点赤经 126.102°
平近点角 274.260°
近地点: 538.679km
远地点: 540.755km
周期: 95.437分钟
每日圈数: 15.088494
详细信息
固有亮度:
5
最大亮度:
2.5
卫星平台:
Starlink v1.5
覆盖范围:
全球
运营商:
太空探索技术公司
运营商所在国:
美国
制造商(研发单位):
太空探索技术公司
制造商所在国:
美国
使用方式:
暂无
卫星简介
星链(Starlink)计划是由太空探索技术公司(SpaceX)提出的一个巨型低轨卫星互联网星座项目,计划在2019年至2024年间在太空搭建由约1.2万颗卫星组成的“星链”网络,其中1584颗将部署在地球上空550千米处的近地轨道,并从2020年开始工作。该卫星仍在工作。
2D轨道图
3D轨道图
轨道高度分析图
轨道倾角分析图
轨道综合分析图
查看轨道综合分析图